カタログに戻る

FENGYUN 1C DEB

運用中SSO
NORAD 29760·DEBRIS·🇨🇳 China

打ち上げ May 10, 1999 から Taiyuan Satellite Launch Center

Loading…

次のパス (今後24時間)

TLE

最新Source: Space-Track

元期: Sep 13, 2026, 23:41 UTC

1 29760U 99025BA  26256.98692853  .00000185  00000-0  12185-3 0  9994
2 29760  98.7705 256.4843 0131497 116.8598 244.6085 14.08460911  9661

AllMySatでFENGYUN 1C DEBをリアルタイム追跡

Download on the App Store